Location: Makakahi
(40.6833°S, 175.6000°E)
Time: 00:11:48
(UTC+00:00)

FENGYUN 1C DEB - Pass Details

Date: 07 December 2024
Orbit: 812 x 877 km, 98.8° (Epoch: 19 January)

Event Time Altitude Azimuth Distance (km) Brightness Sun altitude
Rises 10:15:08 0° 180° (S) 3,378 ? -21.3°
Reaches altitude 10° 10:17:54 10° 193° (SSW) 2,443 ? -21.6°
Maximum altitude 10:22:05 23° 244° (WSW) 1,687 ? -21.9°
Drops below altitude 10° 10:26:16 10° 295° (WNW) 2,446 ? -22.3°
Sets 10:29:03 0° 308° (NW) 3,382 ? -22.5°
